Location: Kielce
(50.8833°N, 20.6167°E)
Time: 15:39:51
(UTC+02:00)

Transit 4A - Visible Passes

Search period start: 23 April 2021 00:00
Search period end: 03 May 2021 00:00
Orbit: 869 x 975 km, 66.8° (Epoch: 23 April)

Date Brightness Start Highest point End Pass type
(mag) Time Alt. Az. Time Alt. Az. Time Alt. Az.
23 Apr 9.4 01:41:34 14° W 01:46:08 31° NNW 01:51:28 10° NNE visible
23 Apr 10.2 03:30:27 10° NW 03:34:27 18° N 03:38:24 10° NE visible
23 Apr 8.9 22:22:57 26° ESE 22:22:57 26° ESE 22:27:32 10° NE visible
24 Apr 8.0 00:06:23 44° SW 00:08:27 75° NW 00:14:32 10° NE visible
24 Apr 9.7 01:50:43 10° W 01:55:47 26° NNW 02:00:47 10° NNE visible
24 Apr 10.3 03:40:22 10° NW 03:44:17 17° N 03:48:08 10° NE visible
24 Apr 8.4 22:31:04 36° SE 22:31:41 36° ESE 22:37:11 10° NE visible
25 Apr 8.4 00:14:30 27° WSW 00:17:52 57° NW 00:23:50 10° NNE visible
25 Apr 9.9 02:00:47 10° WNW 02:05:30 22° NNW 02:10:08 10° NNE visible
25 Apr 10.3 03:50:10 10° NW 03:54:06 18° N 03:58:00 10° NE visible
25 Apr 8.0 22:38:58 38° SSE 22:40:50 50° ESE 22:46:41 10° NE visible
26 Apr 8.8 00:22:22 14° WSW 00:27:20 44° NW 00:33:06 10° NNE visible
26 Apr 10.1 02:10:52 10° WNW 02:15:15 20° NNW 02:19:35 10° NNE visible
26 Apr 10.3 03:59:48 10° NNW 04:03:55 19° NNE 04:07:59 10° NE visible
26 Apr 9.4 21:03:07 13° ESE 21:04:43 14° ESE 21:07:51 10° ENE visible
26 Apr 7.8 22:46:30 26° SSW 22:50:04 69° ESE 22:56:06 10° NE visible
27 Apr 9.3 00:31:16 10° WSW 00:36:53 35° NW 00:42:23 10° NNE visible
27 Apr 10.3 02:20:57 10° NW 02:25:03 18° N 02:29:06 10° NNE visible
27 Apr 10.3 04:09:20 10° NNW 04:13:42 20° NNE 04:18:01 10° ENE visible
27 Apr 9.1 21:10:05 13° SSE 21:13:41 21° ESE 21:18:05 10° ENE visible
27 Apr 7.8 22:53:23 11° SW 22:59:22 89° NW 23:05:27 10° NE visible
28 Apr 9.6 00:41:12 10° W 00:46:29 29° NNW 00:51:41 10° NNE visible
28 Apr 10.4 02:30:56 10° NW 02:34:52 17° N 02:38:45 10° NE visible
28 Apr 10.2 04:18:45 10° NNW 04:23:27 23° NNE 04:28:04 10° ENE visible
28 Apr 8.7 21:17:30 10° SSE 21:22:44 29° ESE 21:27:53 10° NE visible
28 Apr 8.2 23:02:33 10° SW 23:08:43 68° NW 23:14:45 10° NE visible
29 Apr 9.9 00:51:13 10° W 00:56:10 25° NNW 01:01:01 10° NNE visible
29 Apr 10.5 02:40:49 10° NW 02:44:42 17° N 02:48:32 10° NE visible
29 Apr 10.1 04:28:07 10° NNW 04:33:08 27° NNE 04:38:04 10° E visible
29 Apr 8.3 21:26:07 10° S 21:31:51 41° ESE 21:37:29 10° NE visible
29 Apr 8.6 23:12:08 10° WSW 23:18:09 52° NW 23:24:03 10° NNE visible
30 Apr 10.2 01:01:18 10° WNW 01:05:53 21° NNW 01:10:23 10° NNE visible
30 Apr 10.5 02:50:33 10° NW 02:54:31 18° N 02:58:27 10° NE visible
30 Apr 9.8 04:37:26 10° NNW 04:42:46 33° NE 04:48:00 10° E visible
30 Apr 7.9 21:34:59 10° SSW 21:41:02 56° ESE 21:46:57 10° NE visible
30 Apr 9.1 23:21:52 10° WSW 23:27:39 41° NW 23:33:19 10° NNE visible
01 May 10.4 01:11:24 10° WNW 01:15:39 19° NNW 01:19:51 10° NNE visible
01 May 10.5 03:00:08 10° NNW 03:04:19 19° NNE 03:08:26 10° ENE visible
01 May 7.8 21:44:06 10° SSW 21:50:17 77° ESE 21:56:20 10° NE visible
01 May 9.6 23:31:44 10° W 23:37:13 33° NW 23:42:36 10° NNE visible
02 May 10.5 01:21:27 10° NW 01:25:27 18° N 01:29:24 10° NE visible
02 May 10.4 03:09:37 10° NNW 03:14:05 21° NNE 03:18:30 10° ENE visible
02 May 8.0 21:53:24 10° SW 21:59:36 81° NW 22:05:40 10° NE visible
02 May 9.9 23:41:42 10° W 23:46:50 27° NNW 23:51:54 10° NNE visible
